User: anonymous   Login
Location: Unspecified
(0.0000°N, 0.0000°E)
Time: 08:52:58
(UTC+02:00)
Language:

Milstar 3 Cent rocket - Orbit

View from above orbital plane
View from above orbital plane
View from above satellite
View from above satellite

Ground track
Ground track

The orbit data is extracted from the following two-line orbital elements,

1 25725U 99023B   15207.09717619 0.00000000  00000-0  00000-0 0    02
2 25725  28.3051 153.6159 2386418 274.6795  85.3200  9.67201785    07
Epoch (UTC): 26 July 2015 02:19:56
Eccentricity: 0.2386418
inclination: 28.3051°
perigee height: 706 km
apogee height: 5147 km
right ascension of ascending node: 153.6159°
argument of perigee: 274.6795°
revolutions per day: 9.67201785
mean anomaly at epoch: 85.3200°
orbit number at epoch: 0

The dashed part of the orbit path shows where the satellite is in the earth's shadow,  

DLR